Regional Weather Roundup
Issued by NWS Memphis, TN

Home | Current Version | Previous Version | Text Only | Print | Product List | Glossary On
Versions: 1 2 3 4 5 6 7 8 9 10 11 12 13 14 15 16 17 18 19 20 21 22 23 24 25 26 27 28 29 30 31 32 33 34 35 36 37 38 39 40 41 42 43 44 45 46 47 48 49 50
000
ASUS44 KMEG 101110
RWRMEG
MEMPHIS CWA HOURLY WEATHER ROUNDUP
NATIONAL WEATHER SERVICE MEMPHIS TN
500 AM CST WED FEB 10 2016

...WEST TENNESSEE...

CITY           SKY/WX    TMP DP  RH WIND       PRES   REMARKS
MEMPHIS INTL   CLEAR     25   8  48 NW8       30.22R WCI  16
NWS MEMPHIS      N/A     23 N/A N/A MISG        N/A
JACKSON        CLEAR     21  10  62 NW7       30.19R WCI  12
DYERSBURG      CLEAR     21   9  58 NW8       30.22S WCI  12
UNION CITY     CLEAR     19   9  63 NW9       30.16S WCI   9
PARIS          CLEAR     16   7  67 W5        30.14R WCI   9


...EASTERN ARKANSAS...

CITY           SKY/WX    TMP DP  RH WIND       PRES   REMARKS
JONESBORO      CLEAR     23   7  50 NW6       30.24R WCI  16
WEST MEMPHIS   CLEAR     24  13  62 NW5       30.24R WCI  18
BATESVILLE     CLEAR     25   7  46 W3        30.27R
NEWPORT        PTCLDY    23   8  52 W3        30.27R
WALNUT RIDGE   CLEAR     19   7  58 N6        30.25S WCI  11
BLYTHEVILLE    CLEAR     21  12  68 NW7       30.22S WCI  12
SEARCY         CLEAR     25  10  54 NW5       30.30R WCI  19
STUTTGART      CLEAR     28  10  47 W9        30.30R WCI  20
PINE BLUFF     CLEAR     29  11  47 NW10      30.31R WCI  20
MONTICELLO     CLEAR     29  11  47 CALM      30.30R


...NORTH MISSISSIPPI...

CITY           SKY/WX    TMP DP  RH WIND       PRES   REMARKS
TUPELO         CLEAR     23  13  65 W5        30.22R WCI  17
OXFORD         CLEAR     23  12  63 NW5       30.25R WCI  17
TUNICA         CLEAR     27  10  50 NW5       30.28R WCI  21
GREENWOOD      CLEAR     21  17  84 CALM      30.27R
COLUMBUS       CLEAR     24  16  71 W8        30.22R WCI  15
STARKVILLE     FAIR      27  14  59 CALM      30.23R
GOLDEN TRIANGL CLEAR     27  12  54 NW7       30.21R WCI  19


...SOUTHEAST MISSOURI...

CITY           SKY/WX    TMP DP  RH WIND       PRES   REMARKS
WEST PLAINS    CLEAR     18   5  57 NW7       30.17R WCI   9
POPLAR BLUFF   PTCLDY    20   6  55 NW9       30.20R WCI   9
CAPE GIRARDEAU CLEAR     18   5  57 NW13G20   30.19R WCI   5


...NORTHWEST ALABAMA...

CITY           SKY/WX    TMP DP  RH WIND       PRES   REMARKS
MUSCLE SHOALS  CLEAR     22  13  68 NW6       30.19R WCI  14


...MIDDLE TENNESSEE...

CITY           SKY/WX    TMP DP  RH WIND       PRES   REMARKS
NASHVILLE      LGT SNOW  21  15  78 NW10      30.12R WCI  10
CLARKSVILLE    CLOUDY    17   9  70 NW9       30.13R WCI   6
COLUMBIA       CLOUDY    21  19  93 W6        30.11R WCI  14


...WESTERN KENTUCKY...

CITY           SKY/WX    TMP DP  RH WIND       PRES   REMARKS
PADUCAH        CLEAR     19   6  57 NW14      30.16R WCI   6
FORT CAMPBELL  PTCLDY    17   8  68 NW7       30.12S WCI   7


...CENTRAL ARKANSAS...

CITY           SKY/WX    TMP DP  RH WIND       PRES   REMARKS
LITTLE ROCK    CLEAR     30   7  37 NW9       30.31R WCI  22


SKY/WX REPORTED AS FAIR MEANS FEW OR NO CLOUDS BELOW
12 THOUSAND FEET.




USA.gov is the U.S. government's official web portal to all federal, state and local government web resources and services.